Current Version              Previous Version:    01  02  03  04  05  06  07  08  09  10  11  12  13  14  15  16  17  18  19  20  21  22  23  24  25  26  27  28  29  30  
   31  32  33  34  35  36  37  38  39  40  41  42  43  44  45  46  47  48  49  50  51  52  53  54  55  56  57  58  59  60  

[Printable]
113
ASUS44 KFWD 161201
RWRTX
NORTH TEXAS HOURLY WEATHER ROUNDUP
NATIONAL WEATHER SERVICE FORT WORTH TX
700 AM CDT TUE SEP 16 2014

NOTE: "FAIR" INDICATES FEW OR NO CLOUDS BELOW 12,000 FEET WITH NO
SIGNIFICANT WEATHER AND/OR OBSTRUCTIONS TO VISIBILITY.

TXZ118-119-161300-
DALLAS/FORT WORTH METROPLEX

CITY           SKY/WX    TMP DP  RH WIND       PRES   REMARKS
DFW AIRPORT    CLOUDY    75  69  81 CALM      30.11R
6HR MIN TEMP:  75; 6HR MAX TEMP:  78;

DALLAS LOVE    CLOUDY    76  70  82 NE6       30.11R
6HR MIN TEMP:  75; 6HR MAX TEMP:  80;

FTW MEACHAM    CLOUDY    75  69  81 CALM      30.11R
6HR MIN TEMP:  74; 6HR MAX TEMP:  78; 6HR PCP: TRACE;

DAL-EXECUTIVE  CLOUDY    76  69  79 E5        30.10S
6HR MIN TEMP:  75; 6HR MAX TEMP:  79;

FTW-ALLIANCE   CLOUDY    73  68  84 CALM      30.11R
6HR MIN TEMP:  72; 6HR MAX TEMP:  76;

FTW-NAS-JRB    CLOUDY    79  69  71 NE3       30.15R
6HR MIN TEMP:  79; 6HR MAX TEMP:  83;

FTW-SPINKS     CLEAR     72  70  94 CALM      30.12S
ARLINGTON      CLOUDY    73  69  87 CALM      30.10S
6HR MIN TEMP:  73; 6HR MAX TEMP:  77;

GRAND PRAIRIE  CLEAR     73  68  83 MISG      30.12R
ADDISON        MOCLDY    75  70  83 NE6       30.12R
MESQUITE       CLEAR     72  70  94 CALM      30.11R
LANCASTER      CLOUDY    72  67  85 CALM      30.11S
6HR MIN TEMP:  72; 6HR MAX TEMP:  74;

$$

TXZ091>094-102>105-117-120-121-131>134-161300-
NORTH CENTRAL TEXAS

CITY           SKY/WX    TMP DP  RH WIND       PRES   REMARKS
SHRMAN/DENISON CLOUDY    73  69  86 E3        30.14R
6HR MIN TEMP:  73; 6HR MAX TEMP:  75;

GAINESVILLE    CLOUDY    72  70  94 CALM      30.15R
6HR MIN TEMP:  71; 6HR MAX TEMP:  74;

BRIDGEPORT     CLOUDY    70  70 100 CALM      30.14S FOG
6HR MIN TEMP:  70; 6HR MAX TEMP:  73;

DECATUR        CLOUDY    74  67  80 CALM      30.13S
6HR MIN TEMP:  73; 6HR MAX TEMP:  75;

DENTON         CLOUDY    73  69  87 CALM      30.11S
6HR MIN TEMP:  73; 6HR MAX TEMP:  76;

MCKINNEY       CLOUDY    73  70  90 CALM      30.12S
6HR MIN TEMP:  73; 6HR MAX TEMP:  75;

GREENVILLE     MOCLDY    72  68  88 CALM      30.12S
ROCKWALL       CLOUDY    73  71  93 CALM      30.11R
6HR MIN TEMP:  73; 6HR MAX TEMP:  76;

TERRELL        CLOUDY    74  72  93 N6        30.12R
6HR MIN TEMP:  74; 6HR MAX TEMP:  78;

WAXAHACHIE     CLOUDY    73  69  88 CALM      30.12S
6HR MIN TEMP:  72; 6HR MAX TEMP:  75;

CLEBURNE       CLOUDY    73  72  94 CALM      30.12F
$$

TXZ083>090-098>101-113>116-127>130-139>142-154-155-161300-
WESTERN NORTH TEXAS

CITY           SKY/WX    TMP DP  RH WIND       PRES   REMARKS
WICHITA FALLS  CLOUDY    72  70  93 E3        30.12S
6HR MIN TEMP:  72; 6HR MAX TEMP:  76;

WF-KICKAPOO    CLOUDY    73  69  87 CALM      30.13S
6HR MIN TEMP:  73; 6HR MAX TEMP:  76;

VERNON         CLOUDY    73  68  83 N5        30.14S
6HR MIN TEMP:  70; 6HR MAX TEMP:  87;

ABILENE        CLOUDY    72  66  81 SE3       30.13F
6HR MIN TEMP:  72; 6HR MAX TEMP:  74;

ABILENE-DYESS    N/A     71  65  80 SE3       30.14S
MINERAL WELLS  CLOUDY    72  68  87 MISG      30.11R
6HR MIN TEMP:  71; 6HR MAX TEMP:  75;

STEPHENVILLE   CLOUDY    72  66  83 CALM      30.15S
6HR MIN TEMP:  71; 6HR MAX TEMP:  74;

COMANCHE         N/A     69  69  98 CALM      30.14S
6HR MIN TEMP:  69; 6HR MAX TEMP:  72;

COLEMAN        CLOUDY    71  66  84 CALM      30.15S
6HR MIN TEMP:  71; 6HR MAX TEMP:  73;

BRADY          LGT RAIN  70  70 100 CALM      30.14S
$$

TXZ143>147-156>162-174-175-161300-
CENTRAL TEXAS

CITY           SKY/WX    TMP DP  RH WIND       PRES   REMARKS
WACO           CLOUDY    73  70  90 N5        30.09S
6HR MIN TEMP:  72; 6HR MAX TEMP:  75;

WACO-MCGREGOR  CLOUDY    72  66  83 NW6       30.11R
6HR MIN TEMP:  72; 6HR MAX TEMP:  75;

CORSICANA      CLOUDY    74  71  91 N3        30.11R
6HR MIN TEMP:  74; 6HR MAX TEMP:  77; 6HR PCP: TRACE;

MEXIA          CLOUDY    73  71  95 CALM      30.09S
6HR MIN TEMP:  73; 6HR MAX TEMP:  74;

HEARNE           N/A     74  72  94 CALM      30.08S
6HR MIN TEMP:  74; 6HR MAX TEMP:  77;

CAMERON        MOCLDY    74  72  91 CALM      30.08S
6HR MIN TEMP:  74; 6HR MAX TEMP:  77;

TEMPLE         CLOUDY    73  66  78 CALM      30.09R
6HR MIN TEMP:  72; 6HR MAX TEMP:  75;

KILLEEN        MOCLDY    75  70  83 CALM      30.10S
KILLEEN-SKYLRK CLOUDY    73  66  78 CALM      30.10R
6HR MIN TEMP:  73; 6HR MAX TEMP:  75;

FORT HOOD      CLOUDY    76  71  85 CALM      30.10S
6HR MIN TEMP:  75; 6HR MAX TEMP:  78;

HAMILTON       CLOUDY    72  71  97 S8        30.13S
6HR MIN TEMP:  72; 6HR MAX TEMP:  74;

LAMPASAS       DRIZZLE   71  69  94 CALM      30.11R
6HR MIN TEMP:  71; 6HR MAX TEMP:  76;

$$

TXZ095>097-106>112-122>126-135>138-148>153-164>167-161300-
EAST TEXAS

CITY           SKY/WX    TMP DP  RH WIND       PRES   REMARKS
PARIS          CLOUDY    72  64  78 E5        30.14R
6HR MIN TEMP:  72; 6HR MAX TEMP:  72;

SULPHUR SPRNGS CLOUDY    71  71  97 E3        30.14S FOG
6HR MIN TEMP:  71; 6HR MAX TEMP:  74;

MOUNT PLEASANT CLOUDY    71  69  96 CALM      30.13S
6HR MIN TEMP:  71; 6HR MAX TEMP:  74;

MINEOLA        MOCLDY    72  72 100 CALM      30.12S FOG
TYLER          MOCLDY    73  70  90 E5        30.11R
6HR MIN TEMP:  73; 6HR MAX TEMP:  77; 6HR PCP: TRACE;

LONGVIEW       MOCLDY    73  69  87 E3        30.10S
6HR MIN TEMP:  72; 6HR MAX TEMP:  75; 6HR PCP: TRACE;

MARSHALL       CLOUDY    73  70  90 CALM      30.13S
6HR MIN TEMP:  73; 6HR MAX TEMP:  76;

ATHENS         CLOUDY    72  72 100 CALM      30.09S
PALESTINE      CLOUDY    75  72  89 NE5       30.10R
JACKSONVILLE   CLOUDY    73  71  95 CALM      30.12S FOG
HENDERSON      CLOUDY    73  71  94 CALM      30.12R
6HR MIN TEMP:  73; 6HR MAX TEMP:  74;

NACOGDOCHES    CLOUDY    73  70  88 E3        30.09S
6HR MIN TEMP:  73; 6HR MAX TEMP:  75;

LUFKIN         CLOUDY    77  72  84 CALM      30.08S
6HR MIN TEMP:  76; 6HR MAX TEMP:  79; 6HR PCP:  0.01;

$$

SUPPLEMENTAL OBSERVATIONS (CENTRAL)

CITY           SKY/WX    TMP DP  RH WIND       PRES   REMARKS
$$

SUPPLEMENTAL OBSERVATIONS (WEST)

CITY           SKY/WX    TMP DP  RH WIND       PRES   REMARKS
$$

SUPPLEMENTAL OBSERVATIONS (EAST)

CITY           SKY/WX    TMP DP  RH WIND       PRES   REMARKS
$$

SUPPLEMENTAL OBSERVATIONS ARE A COLLECTION OF AUTOMATED INSTRUMENTS
THAT ARE MAINTAINED BY A VARIETY OF FEDERAL AND STATE AGENCIES.
CERTAIN ELEMENTS...SUCH AS HUMIDITY VALUES AND SUSTAINED WIND
SPEEDS...MAY BE APPROXIMATED.